Regional Weather Roundup
Issued by NWS

Home | Current Version | Previous Version | Text Only | Print | Product List | Glossary On
Versions: 1 2 3 4 5 6 7 8 9 10 11 12 13 14 15 16 17 18 19 20 21 22 23 24 25 26 27 28 29 30 31 32 33 34 35 36 37 38 39 40 41 42 43 44 45 46 47 48 49 50
000
ASUS43 KBIS 170310
RWRND

NORTH DAKOTA REGIONAL WEATHER ROUNDUP
NATIONAL WEATHER SERVICE BISMARCK ND
900 PM CST MON JAN 16 2017

NOTE: "FAIR" INDICATES FEW OR NO CLOUDS BELOW 12,000 FEET WITH NO
SIGNIFICANT WEATHER AND/OR OBSTRUCTIONS TO VISIBILITY.


NDZ001>003-009>011-017-170400-
NORTHWEST NORTH DAKOTA

CITY           SKY/WX    TMP DP  RH WIND       PRES   REMARKS
WILLISTON      FAIR      11   9  92 S5        30.07F WCI   3
MINOT          FAIR      18  13  80 SW14      30.02F WCI   4
$$

NDZ018>021-031>035-040>046-170400-
SOUTHWEST NORTH DAKOTA

CITY           SKY/WX    TMP DP  RH WIND       PRES   REMARKS
BISMARCK       FAIR      12   8  84 NW3       30.08S
DICKINSON      FAIR      13   8  81 SW5       30.03S WCI   5
GARRISON         N/A      9   5  84 CALM      30.04F
HETTINGER ARPT CLEAR     10   6  84 W3        30.07S
$$

NDZ004>008-012>016-024-026-027-054-170400-
NORTHEAST NORTH DAKOTA

CITY           SKY/WX    TMP DP  RH WIND       PRES   REMARKS
GRAND FORKS    CLOUDY     5   1  83 SW5       30.03F WCI  -4
GRND FRKS AFB  CLOUDY     5   1  83 SW3       30.03S
DEVILS LAKE    FAIR       8   6  92 W6        30.02  WCI  -2
$$

NDZ022-023-025-028>030-036>039-047>053-170400-
SOUTHEAST NORTH DAKOTA

CITY           SKY/WX    TMP DP  RH WIND       PRES   REMARKS
FARGO          CLOUDY    10   7  87 W3        30.04F
JAMESTOWN      FAIR      10   7  87 NW8       30.01F WCI  -2
$$




USA.gov is the U.S. government's official web portal to all federal, state and local government web resources and services.